CW9206 Weather Reports


time (UTC)temp
C
wind
direction
speed
KPH
gust
KPH
rain 1hr
cm
rain 24hr
cm
rain mn
cm
humidity
%
barometer
mb
20260508211740 23 226 11.3 16.1 0.00 0.00 0.00 38 1014.4
20260508211240 23 239 6.4 16.1 0.00 0.00 0.00 37 1014.5
20260508210740 23 263 11.3 16.1 0.00 0.00 0.00 37 1014.4
20260508210240 23 261 3.2 14.5 0.00 0.00 0.00 36 1014.5
20260508205739 23 299 6.4 16.1 0.00 0.00 0.00 36 1014.6
20260508203740 23 279 8.0 11.3 0.00 0.00 0.00 35 1014.7
20260508203240 23 258 4.8 19.3 0.00 0.00 0.00 35 1014.8
20260508202740 23 257 0.0 19.3 0.00 0.00 0.00 35 1014.8
20260508202239 23 309 4.8 11.3 0.00 0.00 0.00 34 1014.9
20260508201740 23 310 3.2 16.1 0.00 0.00 0.00 34 1014.9
20260508200740 23 300 0.0 14.5 0.00 0.00 0.00 34 1015.0
20260508200239 22 299 0.0 14.5 0.00 0.00 0.00 34 1014.9
20260508195739 22 256 0.0 14.5 0.00 0.00 0.00 33 1015.0
20260508194239 22 264 0.0 11.3 0.00 0.00 0.00 32 1015.2
20260508193740 22 225 1.6 9.7 0.00 0.00 0.00 31 1015.3
20260508192740 22 199 1.6 8.0 0.00 0.00 0.00 30 1015.3
20260508192240 21 215 0.0 14.5 0.00 0.00 0.00 30 1015.3
20260508191739 21 275 0.0 14.5 0.00 0.00 0.00 30 1015.5
20260508191239 21 44 0.0 9.7 0.00 0.00 0.00 30 1015.5
20260508190740 21 246 4.8 9.7 0.00 0.00 0.00 30 1015.4
20260508190240 20 236 0.0 9.7 0.00 0.00 0.00 30 1015.4
20260508185739 20 307 0.0 11.3 0.00 0.00 0.00 29 1015.5
20260508185239 20 304 0.0 11.3 0.00 0.00 0.00 29 1015.6
20260508184739 20 304 4.8 11.3 0.00 0.00 0.00 29 1015.6
20260508184239 20 306 4.8 11.3 0.00 0.00 0.00 28 1015.8
20260508183239 19 273 1.6 16.1 0.00 0.00 0.00 28 1015.9
20260508182739 19 245 1.6 11.3 0.00 0.00 0.00 27 1015.9
20260508182239 19 231 0.0 8.0 0.00 0.00 0.00 27 1016.0
20260508181239 18 300 4.8 14.5 0.00 0.00 0.00 27 1016.0
20260508175738 18 237 3.2 8.0 0.00 0.00 0.00 25 1016.1
20260508175238 18 291 1.6 14.5 0.00 0.00 0.00 25 1016.1
20260508174238 17 215 0.0 6.4 0.00 0.00 0.00 21 1016.0
20260508173238 17 213 0.0 8.0 0.00 0.00 0.00 19 1016.1
20260508172739 17 209 0.0 9.7 0.00 0.00 0.00 18 1016.1
20260508171738 16 271 0.0 8.0 0.00 0.00 0.00 14 1016.0
20260508171238 16 271 4.8 8.0 0.00 0.00 0.00 13 1016.1
20260508170738 15 271 0.0 3.2 0.00 0.00 0.00 12 1016.0
20260508170238 15 271 0.0 0.0 0.00 0.00 0.00 12 1016.0
20260508165737 15 280 0.0 0.0 0.00 0.00 0.00 12 1016.0
20260508165238 15 286 0.0 0.0 0.00 0.00 0.00 12 1016.0
20260508164738 14 286 0.0 0.0 0.00 0.00 0.00 12 1016.0
20260508164237 14 286 0.0 0.0 0.00 0.00 0.00 12 1016.1
20260508163738 13 286 0.0 0.0 0.00 0.00 0.00 12 1016.2
20260508162737 13 286 0.0 0.0 0.00 0.00 0.00 13 1016.2
20260508162237 13 286 0.0 0.0 0.00 0.00 0.00 13 1016.2
20260508161737 13 286 0.0 0.0 0.00 0.00 0.00 13 1016.2
20260508161238 13 286 0.0 0.0 0.00 0.00 0.00 13 1016.3
20260508160737 13 286 0.0 0.0 0.00 0.00 0.00 13 1016.3
20260508155237 13 286 0.0 4.8 0.00 0.00 0.00 13 1016.4
20260508154237 13 286 0.0 4.8 0.00 0.00 0.00 13 1016.3
20260508153737 13 286 0.0 0.0 0.00 0.00 0.00 14 1016.4
20260508153237 13 286 0.0 0.0 0.00 0.00 0.00 14 1016.4
20260508152237 12 286 0.0 0.0 0.00 0.00 0.00 14 1016.5
20260508151737 12 286 0.0 0.0 0.00 0.00 0.00 14 1016.4
20260508151236 12 286 0.0 0.0 0.00 0.00 0.00 14 1016.4
20260508150737 12 286 0.0 0.0 0.00 0.00 0.00 14 1016.3
20260508150237 12 286 0.0 0.0 0.00 0.00 0.00 14 1016.3
20260508145736 12 286 0.0 3.2 0.00 0.00 0.00 14 1016.3
20260508145236 12 286 0.0 3.2 0.00 0.00 0.00 14 1016.2
20260508144736 12 287 0.0 0.0 0.00 0.00 0.00 14 1016.3
20260508144236 12 287 0.0 0.0 0.00 0.00 0.00 14 1016.2
20260508143736 12 287 0.0 0.0 0.00 0.00 0.00 14 1016.3
20260508143236 12 287 0.0 0.0 0.00 0.00 0.00 14 1016.2
20260508142736 12 287 0.0 4.8 0.00 0.00 0.00 14 1016.3
20260508142236 12 287 0.0 4.8 0.00 0.00 0.00 14 1016.3
20260508141736 12 287 0.0 0.0 0.00 0.00 0.00 14 1016.3
20260508141236 12 287 0.0 0.0 0.00 0.00 0.00 14 1016.3
20260508140736 12 287 0.0 1.6 0.00 0.00 0.00 14 1016.3
20260508140236 12 287 0.0 1.6 0.00 0.00 0.00 14 1016.3
20260508135736 12 287 0.0 0.0 0.00 0.00 0.00 14 1016.2
20260508135235 12 287 0.0 0.0 0.00 0.00 0.00 14 1016.2
20260508134735 12 287 0.0 0.0 0.00 0.00 0.00 14 1016.1
20260508134235 12 287 0.0 0.0 0.00 0.00 0.00 14 1016.0
20260508133735 12 287 0.0 3.2 0.00 0.00 0.00 14 1016.0
20260508133236 12 287 0.0 4.8 0.00 0.00 0.00 14 1016.0
20260508132735 12 287 0.0 4.8 0.00 0.00 0.00 14 1015.9
20260508132235 12 287 4.8 4.8 0.00 0.00 0.00 14 1016.0
20260508131735 12 287 0.0 0.0 0.00 0.00 0.00 14 1016.0
20260508130235 12 287 0.0 0.0 0.00 0.00 0.00 14 1015.8
20260508125735 12 287 0.0 0.0 0.00 0.00 0.00 14 1015.9
20260508125235 12 287 0.0 0.0 0.00 0.00 0.00 14 1015.9
20260508124735 12 287 0.0 0.0 0.00 0.00 0.00 14 1015.9
20260508124235 12 287 0.0 0.0 0.00 0.00 0.00 14 1015.8
20260508123734 12 287 0.0 0.0 0.00 0.00 0.00 14 1015.8
20260508122734 12 287 0.0 0.0 0.00 0.00 0.00 14 1015.8
20260508122234 12 287 0.0 0.0 0.00 0.00 0.00 14 1015.8
20260508121735 12 287 0.0 0.0 0.00 0.00 0.00 14 1015.7
20260508121235 12 287 0.0 0.0 0.00 0.00 0.00 14 1015.8
20260508120734 12 287 0.0 0.0 0.00 0.00 0.00 14 1015.8
20260508120235 12 287 0.0 0.0 0.00 0.00 0.00 14 1015.7
20260508115734 12 287 0.0 0.0 0.00 0.00 0.00 14 1015.7
20260508115234 12 287 0.0 0.0 0.00 0.00 0.00 14 1015.7
20260508114734 12 287 0.0 0.0 0.00 0.00 0.00 14 1015.7
20260508113734 12 287 0.0 0.0 0.00 0.00 0.00 14 1015.7
20260508113235 12 287 0.0 0.0 0.00 0.00 0.00 14 1015.6
20260508112734 12 287 0.0 0.0 0.00 0.00 0.00 14 1015.7
20260508112234 12 287 0.0 0.0 0.00 0.00 0.00 14 1015.6
20260508111734 12 287 0.0 0.0 0.00 0.00 0.00 14 1015.6
20260508111234 12 287 0.0 0.0 0.00 0.00 0.00 14 1015.6
20260508110734 12 287 0.0 0.0 0.00 0.00 0.00 14 1015.6
20260508110235 12 287 0.0 0.0 0.00 0.00 0.00 14 1015.7
20260508105733 12 287 0.0 0.0 0.00 0.00 0.00 14 1015.9
20260508105234 12 287 0.0 0.0 0.00 0.00 0.00 14 1015.9
20260508104734 12 287 0.0 0.0 0.00 0.00 0.00 14 1015.9
20260508104234 12 287 0.0 0.0 0.00 0.00 0.00 14 1015.9
20260508103233 12 287 0.0 0.0 0.00 0.00 0.00 13 1015.9
20260508102733 12 287 0.0 0.0 0.00 0.00 0.00 13 1015.9
20260508101233 12 287 0.0 0.0 0.00 0.00 0.00 14 1016.0
20260508100733 12 287 0.0 0.0 0.00 0.00 0.00 14 1015.9
20260508100233 12 287 0.0 0.0 0.00 0.00 0.00 14 1015.9
20260508095733 12 287 0.0 0.0 0.00 0.00 0.00 14 1015.9
20260508094733 12 287 0.0 0.0 0.00 0.00 0.00 14 1015.9
20260508094233 12 287 0.0 0.0 0.00 0.00 0.00 14 1015.9
20260508093233 12 287 0.0 0.0 0.00 0.00 0.00 14 1015.9
20260508092733 12 287 0.0 0.0 0.00 0.00 0.00 14 1015.9
20260508091733 12 287 0.0 8.0 0.00 0.00 0.00 14 1015.8
20260508091233 12 287 0.0 8.0 0.00 0.00 0.00 14 1015.8
20260508090733 12 287 0.0 0.0 0.00 0.00 0.00 14 1015.8
20260508090233 12 287 0.0 0.0 0.00 0.00 0.00 14 1015.8
20260508085733 12 287 0.0 0.0 0.00 0.00 0.00 14 1015.7
20260508085233 12 287 0.0 0.0 0.00 0.00 0.00 14 1015.7
20260508084733 12 287 0.0 0.0 0.00 0.00 0.00 13 1015.8
20260508084233 12 287 0.0 0.0 0.00 0.00 0.00 13 1015.8
20260508083733 12 287 0.0 0.0 0.00 0.00 0.00 13 1015.8
20260508083232 12 287 0.0 0.0 0.00 0.00 0.00 13 1015.8
20260508082733 12 287 0.0 0.0 0.00 0.00 0.00 13 1015.9
20260508082232 12 287 0.0 0.0 0.00 0.00 0.00 13 1015.9
20260508081733 12 287 0.0 0.0 0.00 0.00 0.00 13 1015.9
20260508080733 12 287 0.0 0.0 0.00 0.00 0.00 13 1016.0
20260508080232 12 287 0.0 0.0 0.00 0.00 0.00 13 1016.0
20260508075732 12 287 0.0 0.0 0.00 0.00 0.00 13 1016.1
20260508075233 12 287 0.0 0.0 0.00 0.00 0.00 13 1016.0
20260508074733 12 287 0.0 0.0 0.00 0.00 0.00 13 1016.1
20260508074233 12 287 0.0 0.0 0.00 0.00 0.00 13 1016.1
20260508073733 12 287 0.0 0.0 0.00 0.00 0.00 13 1016.1
20260508073232 12 287 0.0 0.0 0.00 0.00 0.00 13 1016.0
20260508072732 12 287 0.0 0.0 0.00 0.00 0.00 13 1016.0
20260508072232 12 287 0.0 0.0 0.00 0.00 0.00 13 1016.1
20260508071732 12 287 0.0 0.0 0.00 0.00 0.00 13 1015.9
20260508070732 12 287 0.0 0.0 0.00 0.00 0.00 13 1015.9
20260508065732 12 287 0.0 0.0 0.00 0.00 0.00 13 1015.8
20260508065233 12 287 0.0 0.0 0.00 0.00 0.00 13 1015.8
20260508064732 12 287 0.0 0.0 0.00 0.00 0.00 13 1015.8
20260508064232 12 287 0.0 0.0 0.00 0.00 0.00 13 1015.8
20260508063733 12 287 0.0 0.0 0.00 0.00 0.00 13 1015.8
20260508063232 12 287 0.0 0.0 0.00 0.00 0.00 13 1015.9
20260508062732 12 287 0.0 0.0 0.00 0.00 0.00 13 1015.9
20260508062232 12 287 0.0 0.0 0.00 0.00 0.00 14 1015.8
20260508061232 12 287 0.0 0.0 0.00 0.00 0.00 14 1015.8
20260508060732 12 287 0.0 0.0 0.00 0.00 0.00 14 1015.9
20260508055732 13 287 0.0 0.0 0.00 0.00 0.00 14 1015.7
20260508054732 13 287 0.0 0.0 0.00 0.00 0.00 14 1015.7
20260508054232 13 287 0.0 0.0 0.00 0.00 0.00 14 1015.7
20260508053732 13 287 0.0 0.0 0.00 0.00 0.00 14 1015.6
20260508052732 13 287 0.0 0.0 0.00 0.00 0.00 14 1015.7
20260508052232 13 287 0.0 0.0 0.00 0.00 0.00 14 1015.7
20260508051732 13 287 0.0 0.0 0.00 0.00 0.00 14 1015.8
20260508051232 13 287 0.0 0.0 0.00 0.00 0.00 15 1015.8
20260508050732 13 287 0.0 0.0 0.00 0.00 0.00 15 1015.7
20260508050232 13 287 0.0 0.0 0.00 0.00 0.00 15 1015.7
20260508045732 13 287 0.0 0.0 0.00 0.00 0.00 15 1015.6
20260508045232 13 287 0.0 0.0 0.00 0.00 0.00 15 1015.6
20260508044732 13 287 0.0 0.0 0.00 0.00 0.00 15 1015.6
20260508044232 13 287 0.0 0.0 0.00 0.00 0.00 15 1015.6
20260508043731 13 287 0.0 0.0 0.00 0.00 0.00 16 1015.5
20260508042731 13 287 0.0 0.0 0.00 0.00 0.00 16 1015.5
20260508042232 13 287 0.0 6.4 0.00 0.00 0.00 16 1015.5
20260508041731 13 287 0.0 6.4 0.00 0.00 0.00 16 1015.4
20260508041231 13 287 0.0 0.0 0.00 0.00 0.00 16 1015.4
20260508040732 13 287 0.0 1.6 0.00 0.00 0.00 17 1015.3
20260508040231 13 287 0.0 4.8 0.00 0.00 0.00 17 1015.2
20260508035231 13 287 0.0 8.0 0.00 0.00 0.00 17 1015.1
20260508034731 14 287 0.0 6.4 0.00 0.00 0.00 18 1015.1
20260508033731 14 287 0.0 6.4 0.00 0.00 0.00 18 1015.0
20260508033231 14 287 0.0 4.8 0.00 0.00 0.00 19 1015.0
20260508032731 14 287 0.0 8.0 0.00 0.00 0.00 20 1015.0
20260508032231 14 288 0.0 8.0 0.00 0.00 0.00 21 1015.0
20260508031730 14 273 0.0 4.8 0.00 0.00 0.00 21 1014.8
20260508031231 14 273 0.0 4.8 0.00 0.00 0.00 22 1014.8
20260508030230 14 274 0.0 9.7 0.00 0.00 0.00 23 1014.8
20260508025731 15 291 0.0 9.7 0.00 0.00 0.00 25 1014.6
20260508025230 15 285 0.0 16.1 0.00 0.00 0.00 26 1014.6
20260508024230 15 265 3.2 11.3 0.00 0.00 0.00 28 1014.5
20260508023730 15 299 0.0 9.7 0.00 0.00 0.00 28 1014.5
20260508023230 15 288 1.6 9.7 0.00 0.00 0.00 28 1014.4
20260508022730 15 288 0.0 9.7 0.00 0.00 0.00 29 1014.3
20260508022230 16 284 0.0 9.7 0.00 0.00 0.00 30 1014.3
20260508021730 16 305 0.0 9.7 0.00 0.00 0.00 31 1014.2
20260508020729 16 325 0.0 14.5 0.00 0.00 0.00 34 1014.1
20260508020230 16 322 1.6 16.1 0.00 0.00 0.00 36 1014.0
20260508015730 17 74 0.0 17.7 0.00 0.00 0.00 39 1014.0
20260508015229 17 320 9.7 17.7 0.00 0.00 0.00 41 1014.0
20260508014730 18 309 9.7 14.5 0.00 0.00 0.00 43 1014.1
20260508014230 18 287 1.6 11.3 0.00 0.00 0.00 44 1014.1
20260508013229 19 320 1.6 11.3 0.00 0.00 0.00 44 1013.9
20260508012730 20 294 0.0 14.5 0.00 0.00 0.00 45 1013.9
20260508012229 20 302 0.0 16.1 0.00 0.00 0.00 45 1013.9
20260508011729 20 272 1.6 16.1 0.00 0.00 0.00 45 1013.8
20260508011229 20 273 0.0 16.1 0.00 0.00 0.00 45 1013.8
20260508010229 21 284 14.5 16.1 0.00 0.00 0.00 45 1013.9
20260508004729 21 250 4.8 11.3 0.00 0.00 0.00 45 1013.7
20260508004228 21 296 6.4 16.1 0.00 0.00 0.00 45 1014.0
20260508003728 21 314 1.6 16.1 0.00 0.00 0.00 45 1013.8
20260508003229 22 237 1.6 17.7 0.00 0.00 0.00 45 1013.7
20260508002728 22 298 6.4 17.7 0.00 0.00 0.00 45 1013.7
20260508002229 22 180 3.2 17.7 0.00 0.00 0.00 45 1013.7
20260508001728 22 290 0.0 17.7 0.00 0.00 0.00 45 1013.7
20260508000728 22 293 3.2 11.3 0.00 0.00 0.00 45 1013.7
20260508000228 22 259 1.6 14.5 0.00 0.00 0.00 46 1013.7
20260507235228 22 261 1.6 22.5 0.00 0.00 0.00 46 1013.8
20260507234728 23 311 1.6 22.5 0.00 0.00 0.00 46 1013.6
20260507234228 23 288 6.4 20.9 0.00 0.00 0.00 46 1013.6
20260507233728 23 304 1.6 20.9 0.00 0.00 0.00 45 1013.5
20260507232728 24 264 0.0 19.3 0.00 0.00 0.00 45 1013.6
20260507232227 24 242 4.8 19.3 0.00 0.00 0.00 44 1013.6
20260507231727 25 249 8.0 16.1 0.00 0.00 0.00 44 1013.6
20260507231227 25 291 6.4 19.3 0.00 0.00 0.00 43 1013.6
20260507230227 25 264 6.4 16.1 0.00 0.00 0.00 43 1013.7
20260507225727 25 311 0.0 11.3 0.00 0.00 0.00 43 1013.6
20260507225227 25 262 8.0 11.3 0.00 0.00 0.00 43 1013.7
20260507224727 25 290 0.0 14.5 0.00 0.00 0.00 43 1013.7
20260507224227 25 259 6.4 16.1 0.00 0.00 0.00 43 1013.7
20260507223727 25 219 0.0 16.1 0.00 0.00 0.00 42 1013.8
20260507223227 25 315 4.8 17.7 0.00 0.00 0.00 43 1013.8
20260507222727 25 225 1.6 17.7 0.00 0.00 0.00 43 1013.8
20260507221227 25 241 0.0 20.9 0.00 0.00 0.00 43 1014.0
20260507220727 25 315 6.4 19.3 0.00 0.00 0.00 43 1014.0
20260507220227 25 235 8.0 19.3 0.00 0.00 0.00 42 1014.0
20260507215726 25 306 0.0 19.3 0.00 0.00 0.00 43 1014.0
20260507215226 25 262 6.4 22.5 0.00 0.00 0.00 42 1014.0
20260507214726 25 327 4.8 22.5 0.00 0.00 0.00 43 1014.1
20260507214226 25 309 14.5 25.7 0.00 0.00 0.00 43 1014.1
20260507213726 25 249 9.7 25.7 0.00 0.00 0.00 43 1014.2
20260507213226 25 272 6.4 17.7 0.00 0.00 0.00 43 1014.2
20260507212727 25 346 4.8 22.5 0.00 0.00 0.00 43 1014.2
20260507212226 25 311 3.2 22.5 0.00 0.00 0.00 43 1014.2